Weather History for Alexandria, MN

Change the Weather History Date:

Monday, May 20, 2013

  Actual Average Record
Temperature  
Mean Temperature 60 °F -  
Max Temperature 66 °F 71 °F 89 °F (1972)
Min Temperature 53 °F 46 °F 28 °F (1967)
Degree Days  
Heating Degree Days 6    
Growing Degree Days 10 (Base 50)    
Moisture  
Dew Point 56 °F    
Average Humidity 90    
Maximum Humidity 100    
Minimum Humidity 68    
Precipitation  
Precipitation 0.60 in - - ()
Sea Level Pressure  
Sea Level Pressure 29.50 in    
Wind  
Wind Speed 10 mph (ESE)    
Max Wind Speed 18 mph    
Max Gust Speed 26 mph    
Visibility 6 miles    
Events Fog , Rain    
Averages and records for this station are not official NWS values.
T = Trace of Precipitation, MM = Missing Value Source: NWS Daily Summary

Daily Weather History Graph

Daily Weather History Graph

Search for Another Location

Airport:

Trip Planner

Search our weather history database for the weather conditions in past years. The results will help you decide how hot, cold, wet, or windy it might be!

Date:

Astronomy

May. 20, 2013 Rise Set
Actual Time 5:44 AM CDT 8:52 PM CDT
Civil Twilight 5:08 AM CDT 9:28 PM CDT
Nautical Twilight 4:22 AM CDT 10:15 PM CDT
Astronomical Twilight 3:25 AM CDT 11:12 PM CDT
Moon 3:47 PM CDT (5/20) 2:55 AM CDT (5/20)
Length of Visible Light 16h 20m
Length of Day
15h 08m
Waxing Gibbous, 75% of the Moon is Illuminated
May 20
Waxing Gibbous
May 24
Full
May 31
Last Quarter
Jun 8
New
Jun 16
First Quarter

Hourly Weather History & Observations

Time (CDT) Temp. Dew Point Humidity Pressure Visibility Wind Dir Wind Speed Gust Speed Precip Events Conditions
12:28 AM 57.2 °F 57.2 °F 100% 29.59 in 2.5 mi ENE 11.5 mph - 0.00 in Rain Light Rain
12:53 AM 57.0 °F 55.9 °F 96% 29.58 in 3.0 mi East 9.2 mph - 0.02 in   Overcast
1:01 AM 57.2 °F 55.4 °F 94% 29.58 in 2.0 mi East 8.1 mph - N/A   Overcast
1:23 AM 55.4 °F 55.4 °F 100% 29.57 in 3.0 mi East 9.2 mph - N/A   Overcast
1:31 AM 55.4 °F 55.4 °F 100% 29.56 in 2.0 mi ENE 11.5 mph - N/A   Overcast
1:53 AM 55.0 °F 53.1 °F 93% 29.54 in 2.5 mi ENE 12.7 mph - N/A   Overcast
2:01 AM 53.6 °F 53.6 °F 100% 29.54 in 5.0 mi ENE 13.8 mph - N/A   Overcast
2:53 AM 54.0 °F 52.0 °F 93% 29.53 in 10.0 mi East 9.2 mph - N/A   Overcast
3:10 AM 53.6 °F 51.8 °F 94% 29.53 in 2.5 mi East 13.8 mph - 0.04 in Rain Rain
3:36 AM 53.6 °F 53.6 °F 100% 29.52 in 1.2 mi East 9.2 mph - 0.07 in Rain Light Rain
3:46 AM 53.6 °F 53.6 °F 100% 29.52 in 0.5 mi East 9.2 mph - 0.07 in Fog Fog
3:53 AM 54.0 °F 53.1 °F 97% 29.52 in 0.5 mi East 8.1 mph - 0.07 in Fog Fog
4:53 AM 55.0 °F 54.0 °F 96% 29.49 in 0.8 mi East 9.2 mph - N/A   Mist
5:18 AM 55.4 °F 53.6 °F 94% 29.50 in 1.2 mi East 6.9 mph - N/A   Overcast
5:23 AM 55.4 °F 53.6 °F 94% 29.50 in 2.0 mi East 8.1 mph - 0.01 in Rain Light Rain
5:32 AM 55.4 °F 53.6 °F 94% 29.50 in 4.0 mi East 9.2 mph - 0.02 in Rain Rain
6:53 AM 55.9 °F 55.0 °F 97% 29.49 in 4.0 mi East 4.6 mph - 0.10 in Rain Light Rain
7:05 AM 55.4 °F 55.4 °F 100% 29.49 in 2.0 mi East 6.9 mph - 0.03 in Rain Rain
7:13 AM 57.2 °F 55.4 °F 94% 29.49 in 1.8 mi ESE 6.9 mph - 0.06 in Rain Rain
7:23 AM 57.2 °F 55.4 °F 94% 29.49 in 2.5 mi East 10.4 mph - 0.09 in Rain Rain
7:40 AM 57.2 °F 48.2 °F 72% 29.49 in 1.8 mi East 6.9 mph - 0.18 in Rain Heavy Rain
7:45 AM 57.2 °F 48.2 °F 72% 29.49 in 2.0 mi ESE 8.1 mph - 0.20 in Rain Rain
7:49 AM 57.2 °F 50.0 °F 77% 29.49 in 3.0 mi SE 6.9 mph - 0.21 in Rain Rain
7:53 AM 57.9 °F 53.1 °F 84% 29.49 in 4.0 mi ESE 5.8 mph - 0.22 in Rain Light Rain
8:01 AM 59.0 °F 53.6 °F 82% 29.49 in 4.0 mi SE 8.1 mph - 0.01 in Rain Light Rain
8:13 AM 60.8 °F - N/A% 29.49 in 5.0 mi SE 8.1 mph - 0.03 in Rain Light Rain
8:53 AM 60.1 °F - N/A% 29.49 in 4.0 mi SE 10.4 mph - 0.08 in Rain Rain
9:53 AM 62.1 °F 61.0 °F 96% 29.48 in 7.0 mi ESE 10.4 mph - 0.04 in Rain Light Rain
10:40 AM 60.8 °F 59.0 °F 94% 29.48 in 5.0 mi East 9.2 mph - 0.02 in Rain Light Rain
10:53 AM 60.1 °F 59.0 °F 96% 29.47 in 7.0 mi East 10.4 mph - 0.02 in Rain Light Rain
11:22 AM 59.0 °F 59.0 °F 100% 29.47 in 2.5 mi East 12.7 mph - 0.04 in Rain Light Rain
11:29 AM 59.0 °F 59.0 °F 100% 29.47 in 7.0 mi East 11.5 mph - 0.04 in   Overcast
11:44 AM 59.0 °F 59.0 °F 100% 29.47 in 9.0 mi East 6.9 mph - 0.04 in   Overcast
11:53 AM 61.0 °F 60.1 °F 97% 29.47 in 7.0 mi SE 8.1 mph - 0.04 in   Overcast
12:02 PM 62.6 °F 60.8 °F 94% 29.47 in 6.0 mi SE 9.2 mph - 0.00 in Rain Light Rain
12:11 PM 62.6 °F 60.8 °F 94% 29.47 in 7.0 mi SE 8.1 mph - 0.00 in   Overcast
12:25 PM 64.4 °F 60.8 °F 88% 29.47 in 10.0 mi South 18.4 mph - 0.01 in   Overcast
12:53 PM 64.9 °F 60.1 °F 84% 29.47 in 10.0 mi South 17.3 mph - 0.01 in   Overcast
1:53 PM 64.9 °F 57.9 °F 78% 29.47 in 10.0 mi South 18.4 mph 26.5 mph N/A   Overcast
2:53 PM 64.9 °F 59.0 °F 81% 29.48 in 10.0 mi South 15.0 mph - N/A   Overcast
3:03 PM 66.2 °F 59.0 °F 78% 29.48 in 10.0 mi South 13.8 mph - N/A   Mostly Cloudy
3:29 PM 64.4 °F 60.8 °F 88% 29.49 in 10.0 mi South 12.7 mph - 0.00 in   Overcast
3:45 PM 62.6 °F 59.0 °F 88% 29.49 in 9.0 mi SSW 16.1 mph 20.7 mph 0.00 in   Overcast
3:53 PM 63.0 °F 60.1 °F 90% 29.49 in 8.0 mi South 15.0 mph 21.9 mph 0.00 in Rain Light Rain
4:53 PM 64.9 °F 57.0 °F 75% 29.49 in 10.0 mi South 16.1 mph 20.7 mph 0.00 in   Mostly Cloudy
5:53 PM 66.0 °F 55.0 °F 68% 29.50 in 10.0 mi South 12.7 mph 23.0 mph N/A   Mostly Cloudy
6:53 PM 62.1 °F 55.0 °F 78% 29.52 in 10.0 mi SSW 9.2 mph 20.7 mph N/A   Overcast
7:53 PM 62.1 °F 54.0 °F 75% 29.52 in 10.0 mi South 12.7 mph - 0.00 in Rain Light Rain
9:53 PM 60.1 °F 55.9 °F 86% 29.54 in 10.0 mi ESE 11.5 mph - N/A   Overcast
10:53 PM 59.0 °F 55.0 °F 87% 29.54 in 10.0 mi East 10.4 mph - N/A   Overcast
11:53 PM 57.0 °F 54.0 °F 89% 29.54 in 10.0 mi East 15.0 mph - N/A   Overcast